Location: Newark
(40.9833°N, 0.0333°W)
Time: 23:43:53
(UTC+00:00)

deb Explorer IX - Pass Details

Date: 27 October 2020
Orbit: 537 x 1105 km, 38.8° (Epoch: 03 December)

Event Time Altitude Azimuth Distance (km) Brightness Sun altitude
Rises 07:19:25 0° 258° (WSW) 3,550 ? 8.6°
Reaches altitude 10° 07:21:53 10° 256° (WSW) 2,683 ? 9.1°
Maximum altitude 07:28:28 73° 173° (S) 1,088 ? 10.2°
Drops below altitude 10° 07:35:43 10° 90° (E) 2,947 ? 11.4°
Sets 07:38:33 0° 89° (E) 3,918 ? 11.8°
